"datetime","temp","dp","rain_mm","uv","solar","mb","wind_mph","gust_mph","windchill","rh"
"2023-09-20 00:00:00",17.3,15.6,0.0,0.0,0,1002.9,3,6,"",90
"2023-09-20 00:01:00",17.3,15.6,0.0,0.0,0,1002.9,3,5,"",90
"2023-09-20 00:02:00",17.3,15.6,0.0,0.0,0,1002.8,5,10,"",90
"2023-09-20 00:03:00",17.3,15.6,0.0,0.0,0,1002.8,5,8,"",90
"2023-09-20 00:04:00",17.3,15.6,0.0,0.0,0,1002.8,3,7,"",90
"2023-09-20 00:05:00",17.3,15.6,0.0,0.0,0,1002.8,4,8,"",90
"2023-09-20 00:06:00",17.3,15.6,0.0,0.0,0,1002.9,3,6,"",90
"2023-09-20 00:07:00",17.3,15.6,0.0,0.0,0,1002.8,2,5,"",90
"2023-09-20 00:08:00",17.3,15.6,0.0,0.0,0,1002.9,2,3,"",90
"2023-09-20 00:09:00",17.3,15.6,0.0,0.0,0,1002.9,3,6,"",90
"2023-09-20 00:10:00",17.4,15.7,0.0,0.0,0,1002.9,4,8,"",90
"2023-09-20 00:11:00",17.3,15.6,0.0,0.0,0,1002.9,4,9,"",90
"2023-09-20 00:12:00",17.4,15.7,0.0,0.0,0,1003.0,4,8,"",90
"2023-09-20 00:13:00",17.4,15.7,0.0,0.0,0,1002.9,5,9,"",90
"2023-09-20 00:14:00",17.4,15.7,0.0,0.0,0,1002.9,5,13,"",90
"2023-09-20 00:15:00",17.4,15.7,0.0,0.0,0,1002.9,4,15,"",90
"2023-09-20 00:16:00",17.4,15.7,0.0,0.0,0,1002.9,3,7,"",90
"2023-09-20 00:17:00",17.4,15.7,0.0,0.0,0,1003.0,2,5,"",90
"2023-09-20 00:18:00",17.4,15.7,0.0,0.0,0,1002.9,4,8,"",90
"2023-09-20 00:19:00",17.4,15.7,0.0,0.0,0,1002.9,3,5,"",90
"2023-09-20 00:20:00",17.4,15.7,0.0,0.0,0,1002.9,3,7,"",90
"2023-09-20 00:21:00",17.4,15.7,0.0,0.0,0,1002.9,4,9,"",90
"2023-09-20 00:22:00",17.4,15.7,0.0,0.0,0,1003.0,6,16,"",90
"2023-09-20 00:23:00",17.4,15.7,0.0,0.0,0,1002.9,3,6,"",90
"2023-09-20 00:24:00",17.4,15.7,0.0,0.0,0,1003.0,2,4,"",90
"2023-09-20 00:25:00",17.4,15.7,0.0,0.0,0,1003.0,2,6,"",90
"2023-09-20 00:26:00",17.4,15.7,0.0,0.0,0,1003.0,4,7,"",90
"2023-09-20 00:27:00",17.4,15.7,0.0,0.0,0,1003.0,4,9,"",90
"2023-09-20 00:28:00",17.4,15.7,0.0,0.0,0,1003.0,3,5,"",90
"2023-09-20 00:29:00",17.4,15.7,0.0,0.0,0,1003.0,3,4,"",90
"2023-09-20 00:30:00",17.4,15.7,0.0,0.0,0,1003.0,5,10,"",90
"2023-09-20 00:31:00",17.4,15.7,0.0,0.0,0,1003.0,3,7,"",90
"2023-09-20 00:32:00",17.4,15.7,0.0,0.0,0,1002.9,4,5,"",90
"2023-09-20 00:33:00",17.3,15.6,0.0,0.0,0,1003.0,2,4,"",90
"2023-09-20 00:34:00",17.3,15.6,0.0,0.0,0,1002.9,3,8,"",90
"2023-09-20 00:35:00",17.3,15.6,0.0,0.0,0,1002.9,3,5,"",90
"2023-09-20 00:36:00",17.3,15.6,0.0,0.0,0,1003.0,2,4,"",90
"2023-09-20 00:37:00",17.3,15.6,0.0,0.0,0,1003.0,3,6,"",90
"2023-09-20 00:38:00",17.3,15.6,0.0,0.0,0,1002.9,2,4,"",90
"2023-09-20 00:39:00",17.3,15.6,0.0,0.0,0,1003.0,4,8,"",90
"2023-09-20 00:40:00",17.3,15.6,0.0,0.0,0,1003.0,2,5,"",90
"2023-09-20 00:41:00",17.3,15.6,0.0,0.0,0,1003.0,3,4,"",90
"2023-09-20 00:42:00",17.3,15.6,0.0,0.0,0,1003.0,2,3,"",90
"2023-09-20 00:43:00",17.3,15.6,0.0,0.0,0,1002.9,4,10,"",90
"2023-09-20 00:44:00",17.3,15.6,0.0,0.0,0,1002.9,3,6,"",90
"2023-09-20 00:45:00",17.3,15.6,0.0,0.0,0,1002.9,3,6,"",90
"2023-09-20 00:46:00",17.3,15.6,0.0,0.0,0,1003.0,2,3,"",90
"2023-09-20 00:47:00",17.3,15.6,0.0,0.0,0,1002.9,3,5,"",90
"2023-09-20 00:48:00",17.3,15.6,0.0,0.0,0,1003.0,4,7,"",90
"2023-09-20 00:49:00",17.2,15.5,0.0,0.0,0,1002.9,3,5,"",90
"2023-09-20 00:50:00",17.2,15.7,0.0,0.0,0,1003.0,2,5,"",91
"2023-09-20 00:51:00",17.2,15.5,0.0,0.0,0,1003.0,3,7,"",90
"2023-09-20 00:52:00",17.2,15.7,0.0,0.0,0,1002.9,2,4,"",91
"2023-09-20 00:53:00",17.2,15.7,0.0,0.0,0,1003.0,4,6,"",91
"2023-09-20 00:54:00",17.2,15.7,0.0,0.0,0,1002.9,3,5,"",91
"2023-09-20 00:55:00",17.2,15.5,0.0,0.0,0,1002.9,2,4,"",90
"2023-09-20 00:56:00",17.2,15.5,0.0,0.0,0,1002.9,4,7,"",90
"2023-09-20 00:57:00",17.2,15.5,0.0,0.0,0,1002.9,2,5,"",90
"2023-09-20 00:58:00",17.2,15.5,0.0,0.0,0,1003.0,2,3,"",90
"2023-09-20 00:59:00",17.2,15.5,0.0,0.0,0,1003.0,2,6,"",90
"2023-09-20 01:00:00",17.2,15.5,0.0,0.0,0,1003.0,3,6,"",90
"2023-09-20 01:01:00",17.3,15.6,0.0,0.0,0,1003.0,4,9,"",90
"2023-09-20 01:02:00",17.3,15.6,0.0,0.0,0,1003.0,2,6,"",90
"2023-09-20 01:03:00",17.3,15.6,0.0,0.0,0,1003.0,4,8,"",90
"2023-09-20 01:04:00",17.3,15.6,0.0,0.0,0,1003.0,2,4,"",90
"2023-09-20 01:05:00",17.3,15.6,0.0,0.0,0,1002.9,3,6,"",90
"2023-09-20 01:06:00",17.3,15.6,0.0,0.0,0,1002.9,2,5,"",90
"2023-09-20 01:07:00",17.3,15.6,0.0,0.0,0,1003.0,2,5,"",90
"2023-09-20 01:08:00",17.3,15.6,0.0,0.0,0,1002.9,3,5,"",90
"2023-09-20 01:09:00",17.3,15.6,0.0,0.0,0,1002.9,2,5,"",90
"2023-09-20 01:10:00",17.3,15.6,0.0,0.0,0,1003.0,3,7,"",90
"2023-09-20 01:11:00",17.3,15.6,0.0,0.0,0,1002.9,2,4,"",90
"2023-09-20 01:12:00",17.3,15.6,0.0,0.0,0,1003.0,3,7,"",90
"2023-09-20 01:13:00",17.3,15.6,0.0,0.0,0,1002.9,3,6,"",90
"2023-09-20 01:14:00",17.3,15.6,0.0,0.0,0,1002.9,2,4,"",90
"2023-09-20 01:15:00",17.3,15.6,0.0,0.0,0,1002.9,2,3,"",90
"2023-09-20 01:16:00",17.3,15.6,0.0,0.0,0,1002.9,2,4,"",90
"2023-09-20 01:17:00",17.3,15.6,0.0,0.0,0,1002.9,4,7,"",90
"2023-09-20 01:18:00",17.3,15.6,0.0,0.0,0,1002.8,5,9,"",90
"2023-09-20 01:19:00",17.3,15.6,0.0,0.0,0,1002.9,3,6,"",90
"2023-09-20 01:20:00",17.3,15.6,0.0,0.0,0,1002.9,2,4,"",90
"2023-09-20 01:21:00",17.3,15.6,0.0,0.0,0,1002.9,2,4,"",90
"2023-09-20 01:22:00",17.3,15.6,0.0,0.0,0,1002.9,2,5,"",90
"2023-09-20 01:23:00",17.3,15.6,0.0,0.0,0,1003.0,3,5,"",90
"2023-09-20 01:24:00",17.3,15.6,0.0,0.0,0,1002.9,3,4,"",90
"2023-09-20 01:25:00",17.3,15.6,0.0,0.0,0,1002.9,3,5,"",90
"2023-09-20 01:26:00",17.2,15.5,0.0,0.0,0,1002.9,3,4,"",90
"2023-09-20 01:27:00",17.2,15.5,0.0,0.0,0,1002.9,2,4,"",90
"2023-09-20 01:28:00",17.2,15.5,0.0,0.0,0,1002.9,3,5,"",90
"2023-09-20 01:29:00",17.2,15.5,0.0,0.0,0,1002.8,3,7,"",90
"2023-09-20 01:30:00",17.2,15.5,0.0,0.0,0,1002.9,4,7,"",90
"2023-09-20 01:31:00",17.1,15.4,0.0,0.0,0,1002.8,3,4,"",90
"2023-09-20 01:32:00",17.1,15.4,0.0,0.0,0,1002.8,2,4,"",90
"2023-09-20 01:33:00",17.1,15.6,0.0,0.0,0,1002.8,3,5,"",91
"2023-09-20 01:34:00",17.1,15.6,0.0,0.0,0,1002.8,2,5,"",91
"2023-09-20 01:35:00",17.1,15.6,0.0,0.0,0,1002.8,3,5,"",91
"2023-09-20 01:36:00",17.1,15.6,0.0,0.0,0,1002.8,3,7,"",91
"2023-09-20 01:37:00",17.1,15.6,0.0,0.0,0,1002.8,3,8,"",91
"2023-09-20 01:38:00",17.1,15.6,0.0,0.0,0,1002.8,2,5,"",91
"2023-09-20 01:39:00",17.1,15.6,0.0,0.0,0,1002.8,3,8,"",91
"2023-09-20 01:40:00",17.1,15.6,0.0,0.0,0,1002.8,3,6,"",91
"2023-09-20 01:41:00",17.0,15.5,0.0,0.0,0,1002.7,3,5,"",91
"2023-09-20 01:42:00",17.0,15.5,0.0,0.0,0,1002.7,3,5,"",91
"2023-09-20 01:43:00",17.0,15.5,0.0,0.0,0,1002.7,2,4,"",91
"2023-09-20 01:44:00",17.0,15.5,0.0,0.0,0,1002.8,3,6,"",91
"2023-09-20 01:45:00",17.0,15.5,0.0,0.0,0,1002.7,3,5,"",91
"2023-09-20 01:46:00",17.0,15.5,0.0,0.0,0,1002.8,3,5,"",91
"2023-09-20 01:47:00",17.0,15.5,0.0,0.0,0,1002.7,2,3,"",91
"2023-09-20 01:48:00",16.9,15.4,0.0,0.0,0,1002.7,3,10,"",91
"2023-09-20 01:49:00",16.9,15.4,0.0,0.0,0,1002.8,3,7,"",91
"2023-09-20 01:50:00",16.9,15.4,0.0,0.0,0,1002.7,4,9,"",91
"2023-09-20 01:51:00",17.0,15.5,0.0,0.0,0,1002.7,5,9,"",91
"2023-09-20 01:52:00",16.9,15.4,0.0,0.0,0,1002.7,2,4,"",91
"2023-09-20 01:53:00",17.0,15.5,0.0,0.0,0,1002.7,3,6,"",91
"2023-09-20 01:54:00",16.9,15.4,0.0,0.0,0,1002.7,2,5,"",91
"2023-09-20 01:55:00",16.9,15.4,0.0,0.0,0,1002.6,2,5,"",91
"2023-09-20 01:56:00",16.9,15.4,0.0,0.0,0,1002.6,3,5,"",91
"2023-09-20 01:57:00",16.9,15.4,0.0,0.0,0,1002.5,3,8,"",91
"2023-09-20 01:58:00",16.9,15.4,0.0,0.0,0,1002.5,3,5,"",91
"2023-09-20 01:59:00",16.9,15.4,0.0,0.0,0,1002.5,3,5,"",91
"2023-09-20 02:00:00",16.9,15.4,0.0,0.0,0,1002.6,4,6,"",91
"2023-09-20 02:01:00",16.9,15.4,0.0,0.0,0,1002.5,3,6,"",91
"2023-09-20 02:02:00",16.9,15.4,0.0,0.0,0,1002.5,3,6,"",91
"2023-09-20 02:03:00",16.9,15.4,0.0,0.0,0,1002.5,3,7,"",91
"2023-09-20 02:04:00",16.9,15.4,0.0,0.0,0,1002.5,4,8,"",91
"2023-09-20 02:05:00",16.9,15.4,0.0,0.0,0,1002.5,2,5,"",91
"2023-09-20 02:06:00",16.9,15.4,0.0,0.0,0,1002.5,6,10,"",91
"2023-09-20 02:07:00",16.9,15.4,0.0,0.0,0,1002.5,3,6,"",91
"2023-09-20 02:08:00",16.9,15.4,0.0,0.0,0,1002.4,3,6,"",91
"2023-09-20 02:09:00",16.9,15.4,0.0,0.0,0,1002.4,1,3,"",91
"2023-09-20 02:10:00",16.9,15.4,0.0,0.0,0,1002.4,4,8,"",91
"2023-09-20 02:11:00",16.9,15.4,0.0,0.0,0,1002.4,3,7,"",91
"2023-09-20 02:12:00",16.9,15.4,0.0,0.0,0,1002.4,3,4,"",91
"2023-09-20 02:13:00",16.9,15.4,0.0,0.0,0,1002.4,3,4,"",91
"2023-09-20 02:14:00",16.9,15.4,0.0,0.0,0,1002.5,2,4,"",91
"2023-09-20 02:15:00",16.9,15.4,0.0,0.0,0,1002.5,3,5,"",91
"2023-09-20 02:16:00",16.9,15.4,0.0,0.0,0,1002.5,2,3,"",91
"2023-09-20 02:17:00",16.9,15.4,0.0,0.0,0,1002.5,3,7,"",91
"2023-09-20 02:18:00",16.9,15.4,0.0,0.0,0,1002.4,2,4,"",91
"2023-09-20 02:19:00",16.9,15.4,0.0,0.0,0,1002.4,3,6,"",91
"2023-09-20 02:20:00",16.9,15.4,0.0,0.0,0,1002.4,3,4,"",91
"2023-09-20 02:21:00",16.8,15.3,0.0,0.0,0,1002.5,3,6,"",91
"2023-09-20 02:22:00",16.8,15.3,0.0,0.0,0,1002.4,3,5,"",91
"2023-09-20 02:23:00",16.8,15.3,0.0,0.0,0,1002.5,2,4,"",91
"2023-09-20 02:24:00",16.8,15.3,0.0,0.0,0,1002.3,3,6,"",91
"2023-09-20 02:25:00",16.8,15.3,0.0,0.0,0,1002.4,3,6,"",91
"2023-09-20 02:26:00",16.8,15.3,0.0,0.0,0,1002.4,2,4,"",91
"2023-09-20 02:27:00",16.8,15.3,0.0,0.0,0,1002.4,2,5,"",91
"2023-09-20 02:28:00",16.8,15.3,0.0,0.0,0,1002.2,3,5,"",91
"2023-09-20 02:29:00",16.8,15.3,0.0,0.0,0,1002.3,4,6,"",91
"2023-09-20 02:30:00",16.8,15.3,0.0,0.0,0,1002.3,4,10,"",91
"2023-09-20 02:31:00",16.8,15.3,0.0,0.0,0,1002.3,3,5,"",91
"2023-09-20 02:32:00",16.8,15.3,0.0,0.0,0,1002.2,3,5,"",91
"2023-09-20 02:33:00",16.8,15.3,0.0,0.0,0,1002.2,3,5,"",91
"2023-09-20 02:34:00",16.8,15.3,0.0,0.0,0,1002.3,3,6,"",91
"2023-09-20 02:35:00",16.8,15.3,0.0,0.0,0,1002.1,4,6,"",91
"2023-09-20 02:36:00",16.8,15.3,0.0,0.0,0,1002.3,4,8,"",91
"2023-09-20 02:37:00",16.8,15.3,0.0,0.0,0,1002.3,3,5,"",91
"2023-09-20 02:38:00",16.8,15.3,0.0,0.0,0,1002.3,7,21,"",91
"2023-09-20 02:39:00",16.8,15.3,0.0,0.0,0,1002.2,7,14,"",91
"2023-09-20 02:40:00",16.8,15.3,0.0,0.0,0,1002.2,3,5,"",91
"2023-09-20 02:41:00",16.8,15.3,0.0,0.0,0,1002.2,3,9,"",91
"2023-09-20 02:42:00",16.8,15.3,0.0,0.0,0,1002.2,4,9,"",91
"2023-09-20 02:43:00",16.8,15.3,0.0,0.0,0,1002.2,3,7,"",91
"2023-09-20 02:44:00",16.8,15.3,0.0,0.0,0,1002.2,3,7,"",91
"2023-09-20 02:45:00",16.8,15.3,0.0,0.0,0,1002.1,2,6,"",91
"2023-09-20 02:46:00",16.8,15.3,0.0,0.0,0,1002.1,3,8,"",91
"2023-09-20 02:47:00",16.8,15.3,0.0,0.0,0,1002.1,2,4,"",91
"2023-09-20 02:48:00",16.8,15.3,0.0,0.0,0,1002.1,2,7,"",91
"2023-09-20 02:49:00",16.8,15.3,0.0,0.0,0,1002.2,3,5,"",91
"2023-09-20 02:50:00",16.8,15.3,0.0,0.0,0,1002.1,5,8,"",91
"2023-09-20 02:51:00",16.8,15.3,0.0,0.0,0,1002.1,2,4,"",91
"2023-09-20 02:52:00",16.8,15.3,0.0,0.0,0,1002.1,3,7,"",91
"2023-09-20 02:53:00",16.8,15.1,0.0,0.0,0,1002.1,4,8,"",90
"2023-09-20 02:54:00",16.8,15.1,0.0,0.0,0,1002.0,4,10,"",90
"2023-09-20 02:55:00",16.8,15.1,0.0,0.0,0,1002.1,4,10,"",90
"2023-09-20 02:56:00",16.8,15.1,0.0,0.0,0,1002.0,3,6,"",90
"2023-09-20 02:57:00",16.8,15.1,0.0,0.0,0,1002.0,6,13,"",90
"2023-09-20 02:58:00",16.8,15.1,0.0,0.0,0,1002.0,4,8,"",90
"2023-09-20 02:59:00",16.9,15.2,0.0,0.0,0,1002.0,5,9,"",90
"2023-09-20 03:00:00",16.9,15.2,0.0,0.0,0,1001.9,3,7,"",90
"2023-09-20 03:01:00",16.9,15.2,0.0,0.0,0,1001.9,4,8,"",90
"2023-09-20 03:02:00",16.9,15.2,0.0,0.0,0,1001.9,3,14,"",90
"2023-09-20 03:03:00",16.9,15.2,0.0,0.0,0,1001.9,5,7,"",90
"2023-09-20 03:04:00",16.9,15.2,0.0,0.0,0,1001.9,4,5,"",90
"2023-09-20 03:05:00",16.9,15.1,0.0,0.0,0,1002.0,4,7,"",89
"2023-09-20 03:06:00",16.9,15.1,0.0,0.0,0,1002.0,3,5,"",89
"2023-09-20 03:07:00",16.9,15.1,0.0,0.0,0,1002.0,3,7,"",89
"2023-09-20 03:08:00",17.0,15.2,0.0,0.0,0,1002.0,5,10,"",89
"2023-09-20 03:09:00",16.9,15.1,0.0,0.0,0,1002.0,5,9,"",89
"2023-09-20 03:10:00",17.0,15.2,0.0,0.0,0,1001.9,2,5,"",89
"2023-09-20 03:11:00",16.9,15.1,0.0,0.0,0,1002.0,5,9,"",89
"2023-09-20 03:12:00",16.9,15.1,0.0,0.0,0,1001.8,5,7,"",89
"2023-09-20 03:13:00",16.9,15.1,0.0,0.0,0,1001.8,4,7,"",89
"2023-09-20 03:14:00",16.9,15.1,0.0,0.0,0,1001.9,4,7,"",89
"2023-09-20 03:15:00",16.9,15.1,0.0,0.0,0,1001.8,5,8,"",89
"2023-09-20 03:16:00",17.0,15.2,0.0,0.0,0,1001.8,4,7,"",89
"2023-09-20 03:17:00",17.0,15.2,0.0,0.0,0,1001.8,3,6,"",89
"2023-09-20 03:18:00",17.0,15.2,0.0,0.0,0,1001.8,3,5,"",89
"2023-09-20 03:19:00",17.1,15.3,0.0,0.0,0,1001.8,3,4,"",89
"2023-09-20 03:20:00",17.0,15.2,0.0,0.0,0,1001.7,4,6,"",89
"2023-09-20 03:21:00",17.0,15.2,0.0,0.0,0,1001.7,3,6,"",89
"2023-09-20 03:22:00",17.0,15.2,0.0,0.0,0,1001.7,4,5,"",89
"2023-09-20 03:23:00",17.0,15.2,0.0,0.0,0,1001.7,3,7,"",89
"2023-09-20 03:24:00",17.0,15.2,0.0,0.0,0,1001.7,4,6,"",89
"2023-09-20 03:25:00",16.9,15.1,0.0,0.0,0,1001.7,4,7,"",89
"2023-09-20 03:26:00",16.9,15.1,0.0,0.0,0,1001.7,5,13,"",89
"2023-09-20 03:27:00",16.9,15.1,0.0,0.0,0,1001.7,5,7,"",89
"2023-09-20 03:28:00",16.9,15.1,0.0,0.0,0,1001.7,4,7,"",89
"2023-09-20 03:29:00",16.9,15.1,0.0,0.0,0,1001.7,2,5,"",89
"2023-09-20 03:30:00",16.9,15.1,0.0,0.0,0,1001.8,5,10,"",89
"2023-09-20 03:31:00",16.9,15.1,0.0,0.0,0,1001.7,4,11,"",89
"2023-09-20 03:32:00",16.9,15.1,0.0,0.0,0,1001.7,6,10,"",89
"2023-09-20 03:33:00",16.9,15.1,0.0,0.0,0,1001.7,3,5,"",89
"2023-09-20 03:34:00",16.9,15.1,0.0,0.0,0,1001.7,2,3,"",89
"2023-09-20 03:35:00",16.9,15.1,0.0,0.0,0,1001.8,3,6,"",89
"2023-09-20 03:36:00",16.9,15.1,0.0,0.0,0,1001.7,3,6,"",89
"2023-09-20 03:37:00",16.8,15.0,0.0,0.0,0,1001.7,3,4,"",89
"2023-09-20 03:38:00",16.8,15.0,0.0,0.0,0,1001.7,2,5,"",89
"2023-09-20 03:39:00",16.8,15.0,0.0,0.0,0,1001.8,3,5,"",89
"2023-09-20 03:40:00",16.8,15.0,0.0,0.0,0,1001.7,4,7,"",89
"2023-09-20 03:41:00",16.8,15.0,0.0,0.0,0,1001.8,3,7,"",89
"2023-09-20 03:42:00",16.8,15.0,0.0,0.0,0,1001.7,4,6,"",89
"2023-09-20 03:43:00",16.7,14.9,0.0,0.0,0,1001.7,4,7,"",89
"2023-09-20 03:44:00",16.7,14.9,0.0,0.0,0,1001.6,3,5,"",89
"2023-09-20 03:45:00",16.7,14.9,0.0,0.0,0,1001.6,2,4,"",89
"2023-09-20 03:46:00",16.7,14.9,0.0,0.0,0,1001.6,1,3,"",89
"2023-09-20 03:47:00",16.7,14.9,0.0,0.0,0,1001.6,4,5,"",89
"2023-09-20 03:48:00",16.7,14.9,0.0,0.0,0,1001.6,3,4,"",89
"2023-09-20 03:49:00",16.8,15.0,0.0,0.0,0,1001.6,2,4,"",89
"2023-09-20 03:50:00",16.7,14.9,0.0,0.0,0,1001.5,3,8,"",89
"2023-09-20 03:51:00",16.7,14.9,0.0,0.0,0,1001.5,4,7,"",89
"2023-09-20 03:52:00",16.7,14.9,0.0,0.0,0,1001.5,4,7,"",89
"2023-09-20 03:53:00",16.7,14.9,0.0,0.0,0,1001.5,3,5,"",89
"2023-09-20 03:54:00",16.7,14.9,0.0,0.0,0,1001.5,2,5,"",89
"2023-09-20 03:55:00",16.7,14.9,0.0,0.0,0,1001.5,3,5,"",89
"2023-09-20 03:56:00",16.7,14.9,0.0,0.0,0,1001.5,3,7,"",89
"2023-09-20 03:57:00",16.8,15.0,0.0,0.0,0,1001.4,2,3,"",89
"2023-09-20 03:58:00",16.7,14.9,0.0,0.0,0,1001.5,3,5,"",89
"2023-09-20 03:59:00",16.7,14.9,0.0,0.0,0,1001.4,3,7,"",89
"2023-09-20 04:00:00",16.7,14.9,0.0,0.0,0,1001.4,3,5,"",89
"2023-09-20 04:01:00",16.7,14.9,0.0,0.0,0,1001.4,5,14,"",89
"2023-09-20 04:02:00",16.7,14.9,0.0,0.0,0,1001.3,4,10,"",89
"2023-09-20 04:03:00",16.7,14.9,0.0,0.0,0,1001.2,3,5,"",89
"2023-09-20 04:04:00",16.7,14.9,0.0,0.0,0,1001.1,4,9,"",89
"2023-09-20 04:05:00",16.7,14.7,0.0,0.0,0,1001.1,3,5,"",88
"2023-09-20 04:06:00",16.8,14.8,0.0,0.0,0,1001.1,4,9,"",88
"2023-09-20 04:07:00",16.8,14.8,0.0,0.0,0,1001.2,2,6,"",88
"2023-09-20 04:08:00",16.8,14.8,0.0,0.0,0,1001.1,2,4,"",88
"2023-09-20 04:09:00",16.9,14.9,0.0,0.0,0,1001.0,1,3,"",88
"2023-09-20 04:10:00",16.8,14.8,0.0,0.0,0,1001.0,2,4,"",88
"2023-09-20 04:11:00",16.8,14.8,0.0,0.0,0,1001.0,2,4,"",88
"2023-09-20 04:12:00",16.8,14.8,0.0,0.0,0,1001.1,3,5,"",88
"2023-09-20 04:13:00",16.9,15.1,0.0,0.0,0,1001.1,2,5,"",89
"2023-09-20 04:14:00",16.8,14.8,0.0,0.0,0,1001.1,2,5,"",88
"2023-09-20 04:15:00",16.8,14.8,0.0,0.0,0,1001.0,4,7,"",88
"2023-09-20 04:16:00",16.8,14.8,0.0,0.0,0,1001.0,3,5,"",88
"2023-09-20 04:17:00",16.8,14.8,0.0,0.0,0,1001.0,3,4,"",88
"2023-09-20 04:18:00",16.8,14.8,0.0,0.0,0,1000.9,2,4,"",88
"2023-09-20 04:19:00",16.8,14.8,0.0,0.0,0,1000.9,4,9,"",88
"2023-09-20 04:20:00",16.8,14.8,0.0,0.0,0,1000.8,2,4,"",88
"2023-09-20 04:21:00",16.8,14.8,0.0,0.0,0,1000.8,3,5,"",88
"2023-09-20 04:22:00",16.8,14.8,0.0,0.0,0,1000.8,2,3,"",88
"2023-09-20 04:23:00",16.8,15.0,0.0,0.0,0,1000.8,2,4,"",89
"2023-09-20 04:24:00",16.8,15.0,0.0,0.0,0,1000.8,3,6,"",89
"2023-09-20 04:25:00",16.8,15.0,0.0,0.0,0,1000.7,2,4,"",89
"2023-09-20 04:26:00",16.8,14.8,0.0,0.0,0,1000.8,2,4,"",88
"2023-09-20 04:27:00",16.8,14.8,0.0,0.0,0,1000.8,3,5,"",88
"2023-09-20 04:28:00",16.8,14.8,0.0,0.0,0,1000.7,3,4,"",88
"2023-09-20 04:29:00",16.9,14.9,0.0,0.0,0,1000.7,2,3,"",88
"2023-09-20 04:30:00",16.9,14.9,0.0,0.0,0,1000.7,3,10,"",88
"2023-09-20 04:31:00",16.9,14.9,0.0,0.0,0,1000.6,3,6,"",88
"2023-09-20 04:32:00",16.9,14.9,0.0,0.0,0,1000.6,5,9,"",88
"2023-09-20 04:33:00",16.9,14.9,0.0,0.0,0,1000.7,2,5,"",88
"2023-09-20 04:34:00",17.0,15.0,0.0,0.0,0,1000.7,6,17,"",88
"2023-09-20 04:35:00",17.0,15.0,0.0,0.0,0,1000.7,4,7,"",88
"2023-09-20 04:36:00",17.0,15.0,0.0,0.0,0,1000.6,4,8,"",88
"2023-09-20 04:37:00",17.0,15.0,0.0,0.0,0,1000.6,4,8,"",88
"2023-09-20 04:38:00",17.0,15.0,0.0,0.0,0,1000.6,3,7,"",88
"2023-09-20 04:39:00",17.0,15.0,0.0,0.0,0,1000.5,2,7,"",88
"2023-09-20 04:40:00",17.0,15.0,0.0,0.0,0,1000.5,4,7,"",88
"2023-09-20 04:41:00",17.0,15.0,0.0,0.0,0,1000.4,3,6,"",88
"2023-09-20 04:42:00",17.0,15.0,0.0,0.0,0,1000.5,3,7,"",88
"2023-09-20 04:43:00",17.0,15.0,0.0,0.0,0,1000.4,3,5,"",88
"2023-09-20 04:44:00",17.0,15.0,0.0,0.0,0,1000.4,3,6,"",88
"2023-09-20 04:45:00",16.9,14.9,0.0,0.0,0,1000.3,2,6,"",88
"2023-09-20 04:46:00",16.9,14.9,0.0,0.0,0,1000.4,5,9,"",88
"2023-09-20 04:47:00",16.9,14.9,0.0,0.0,0,1000.3,5,9,"",88
"2023-09-20 04:48:00",16.9,14.9,0.0,0.0,0,1000.3,3,9,"",88
"2023-09-20 04:49:00",16.9,14.9,0.0,0.0,0,1000.3,4,7,"",88
"2023-09-20 04:50:00",16.9,14.9,0.0,0.0,0,1000.3,5,10,"",88
"2023-09-20 04:51:00",16.9,14.7,0.0,0.0,0,1000.3,6,14,"",87
"2023-09-20 04:52:00",17.0,14.8,0.0,0.0,0,1000.2,4,7,"",87
"2023-09-20 04:53:00",17.0,14.8,0.0,0.0,0,1000.2,5,8,"",87
"2023-09-20 04:54:00",17.1,14.9,0.0,0.0,0,1000.2,2,7,"",87
"2023-09-20 04:55:00",17.1,14.9,0.0,0.0,0,1000.2,4,5,"",87
"2023-09-20 04:56:00",17.1,14.9,0.0,0.0,0,1000.3,2,4,"",87
"2023-09-20 04:57:00",17.1,14.9,0.0,0.0,0,1000.2,3,10,"",87
"2023-09-20 04:58:00",17.1,14.9,0.0,0.0,0,1000.2,3,5,"",87
"2023-09-20 04:59:00",17.1,14.9,0.0,0.0,0,1000.2,5,7,"",87
"2023-09-20 05:00:00",17.1,14.9,0.0,0.0,0,1000.3,3,6,"",87
"2023-09-20 05:01:00",17.1,14.9,0.0,0.0,0,1000.3,2,3,"",87
"2023-09-20 05:02:00",17.1,14.9,0.0,0.0,0,1000.3,1,4,"",87
"2023-09-20 05:03:00",17.0,14.8,0.0,0.0,0,1000.3,4,8,"",87
"2023-09-20 05:04:00",17.0,14.8,0.0,0.0,0,1000.2,3,7,"",87
"2023-09-20 05:05:00",17.1,14.9,0.0,0.0,0,1000.2,3,7,"",87
"2023-09-20 05:06:00",17.0,14.8,0.0,0.0,0,1000.2,3,5,"",87
"2023-09-20 05:07:00",17.0,14.8,0.0,0.0,0,1000.2,3,5,"",87
"2023-09-20 05:08:00",17.1,14.9,0.0,0.0,0,1000.2,3,6,"",87
"2023-09-20 05:09:00",17.1,14.9,0.0,0.0,0,1000.2,4,7,"",87
"2023-09-20 05:10:00",17.1,14.9,0.0,0.0,0,1000.3,1,2,"",87
"2023-09-20 05:11:00",17.1,14.9,0.0,0.0,0,1000.3,4,10,"",87
"2023-09-20 05:12:00",17.1,14.9,0.0,0.0,0,1000.2,4,8,"",87
"2023-09-20 05:13:00",17.1,15.1,0.0,0.0,0,1000.1,3,4,"",88
"2023-09-20 05:14:00",17.1,14.9,0.0,0.0,0,1000.2,4,8,"",87
"2023-09-20 05:15:00",17.1,14.9,0.0,0.0,0,1000.1,4,8,"",87
"2023-09-20 05:16:00",17.1,14.9,0.0,0.0,0,1000.2,4,9,"",87
"2023-09-20 05:17:00",17.1,14.9,0.0,0.0,0,1000.1,2,5,"",87
"2023-09-20 05:18:00",17.1,14.9,0.0,0.0,0,1000.1,3,5,"",87
"2023-09-20 05:19:00",17.1,14.9,0.0,0.0,0,999.9,3,8,"",87
"2023-09-20 05:20:00",17.1,14.9,0.0,0.0,0,999.9,3,6,"",87
"2023-09-20 05:21:00",17.1,14.9,0.0,0.0,0,999.8,3,7,"",87
"2023-09-20 05:22:00",17.1,14.9,0.0,0.0,0,999.9,5,10,"",87
"2023-09-20 05:23:00",17.1,14.9,0.0,0.0,0,1000.0,2,4,"",87
"2023-09-20 05:24:00",17.1,14.9,0.0,0.0,0,999.9,4,6,"",87
"2023-09-20 05:25:00",17.1,14.9,0.0,0.0,0,999.9,4,7,"",87
"2023-09-20 05:26:00",17.1,14.9,0.0,0.0,0,999.8,4,9,"",87
"2023-09-20 05:27:00",17.1,14.9,0.0,0.0,0,999.8,7,13,"",87
"2023-09-20 05:28:00",17.2,15.0,0.0,0.0,0,999.7,2,4,"",87
"2023-09-20 05:29:00",17.2,15.0,0.0,0.0,0,999.7,5,11,"",87
"2023-09-20 05:30:00",17.2,15.0,0.0,0.0,0,999.8,3,8,"",87
"2023-09-20 05:31:00",17.2,15.0,0.0,0.0,0,999.6,5,11,"",87
"2023-09-20 05:32:00",17.2,15.0,0.0,0.0,0,999.7,4,6,"",87
"2023-09-20 05:33:00",17.2,15.0,0.0,0.0,0,999.7,3,6,"",87
"2023-09-20 05:34:00",17.1,14.9,0.0,0.0,0,999.5,4,11,"",87
"2023-09-20 05:35:00",17.1,14.9,0.0,0.0,0,999.6,4,8,"",87
"2023-09-20 05:36:00",17.1,14.9,0.0,0.0,0,999.6,2,4,"",87
"2023-09-20 05:37:00",17.1,14.9,0.0,0.0,0,999.5,3,7,"",87
"2023-09-20 05:38:00",17.1,14.9,0.0,0.0,0,999.5,1,3,"",87
"2023-09-20 05:39:00",17.1,14.9,0.0,0.0,0,999.5,2,6,"",87
"2023-09-20 05:40:00",17.1,14.9,0.0,0.0,0,999.5,4,6,"",87
"2023-09-20 05:41:00",17.1,14.9,0.0,0.0,0,999.5,2,4,"",87
"2023-09-20 05:42:00",17.1,14.9,0.0,0.0,0,999.5,2,4,"",87
"2023-09-20 05:43:00",17.1,14.9,0.0,0.0,0,999.5,3,7,"",87
"2023-09-20 05:44:00",17.1,14.9,0.0,0.0,0,999.5,3,5,"",87
"2023-09-20 05:45:00",17.0,14.8,0.0,0.0,0,999.4,3,4,"",87
"2023-09-20 05:46:00",17.0,14.8,0.0,0.0,0,999.4,3,7,"",87
"2023-09-20 05:47:00",17.1,14.9,0.0,0.0,0,999.5,5,8,"",87
"2023-09-20 05:48:00",17.0,14.8,0.0,0.0,0,999.5,4,15,"",87
"2023-09-20 05:49:00",17.1,14.9,0.0,0.0,0,999.3,5,13,"",87
"2023-09-20 05:50:00",17.1,14.9,0.0,0.0,0,999.4,3,5,"",87
"2023-09-20 05:51:00",17.1,14.9,0.0,0.0,0,999.5,4,8,"",87
"2023-09-20 05:52:00",17.1,14.9,0.0,0.0,0,999.3,3,6,"",87
"2023-09-20 05:53:00",17.1,15.1,0.0,0.0,0,999.4,3,6,"",88
"2023-09-20 05:54:00",17.1,15.1,0.0,0.0,0,999.4,2,5,"",88
"2023-09-20 05:55:00",17.1,15.1,0.0,0.0,0,999.4,6,10,"",88
"2023-09-20 05:56:00",17.1,15.1,0.0,0.0,0,999.4,4,10,"",88
"2023-09-20 05:57:00",17.1,15.1,0.0,0.0,0,999.4,4,8,"",88
"2023-09-20 05:58:00",17.1,15.1,0.0,0.0,0,999.4,2,4,"",88
"2023-09-20 05:59:00",17.1,15.1,0.0,0.0,0,999.4,2,3,"",88
"2023-09-20 06:00:00",17.1,15.1,0.0,0.0,0,999.5,2,4,"",88
"2023-09-20 06:01:00",17.1,15.1,0.0,0.0,0,999.4,3,6,"",88
"2023-09-20 06:02:00",17.1,15.1,0.0,0.0,0,999.3,4,7,"",88
"2023-09-20 06:03:00",17.0,15.0,0.0,0.0,0,999.3,2,4,"",88
"2023-09-20 06:04:00",17.0,15.0,0.0,0.0,0,999.2,3,5,"",88
"2023-09-20 06:05:00",17.0,15.0,0.0,0.0,0,999.2,2,4,"",88
"2023-09-20 06:06:00",17.0,15.0,0.0,0.0,0,999.1,5,7,"",88
"2023-09-20 06:07:00",17.0,15.0,0.0,0.0,0,999.1,4,7,"",88
"2023-09-20 06:08:00",16.9,14.9,0.0,0.0,0,999.2,4,7,"",88
"2023-09-20 06:09:00",16.9,14.9,0.0,0.0,0,999.1,2,4,"",88
"2023-09-20 06:10:00",16.9,14.9,0.0,0.0,0,999.0,5,11,"",88
"2023-09-20 06:11:00",16.9,14.9,0.0,0.0,0,999.0,3,5,"",88
"2023-09-20 06:12:00",16.9,14.9,0.0,0.0,0,998.9,4,7,"",88
"2023-09-20 06:13:00",16.8,14.8,0.0,0.0,0,998.9,3,6,"",88
"2023-09-20 06:14:00",16.8,14.8,0.0,0.0,0,998.8,3,5,"",88
"2023-09-20 06:15:00",16.8,14.8,0.0,0.0,0,998.9,4,8,"",88
"2023-09-20 06:16:00",16.8,14.8,0.0,0.0,0,999.0,3,5,"",88
"2023-09-20 06:17:00",16.8,14.8,0.0,0.0,0,999.0,6,17,"",88
"2023-09-20 06:18:00",16.8,14.8,0.0,0.0,0,998.9,6,16,"",88
"2023-09-20 06:19:00",16.8,14.8,0.0,0.0,0,998.9,4,6,"",88
"2023-09-20 06:20:00",16.8,14.8,0.0,0.0,0,999.0,3,5,"",88
"2023-09-20 06:21:00",16.8,14.8,0.0,0.0,0,999.1,5,9,"",88
"2023-09-20 06:22:00",16.8,14.8,0.0,0.0,0,999.1,4,6,"",88
"2023-09-20 06:23:00",16.8,14.8,0.0,0.0,0,999.1,2,4,"",88
"2023-09-20 06:24:00",16.8,14.8,0.0,0.0,0,999.2,2,3,"",88
"2023-09-20 06:25:00",16.8,14.8,0.0,0.0,0,999.1,2,6,"",88
"2023-09-20 06:26:00",16.8,14.8,0.0,0.0,0,999.1,4,10,"",88
"2023-09-20 06:27:00",16.8,14.8,0.0,0.0,0,999.2,4,7,"",88
"2023-09-20 06:28:00",16.9,14.9,0.0,0.0,0,999.1,3,3,"",88
"2023-09-20 06:29:00",16.9,14.9,0.0,0.0,0,999.1,4,8,"",88
"2023-09-20 06:30:00",16.9,15.1,0.0,0.0,0,999.2,2,4,"",89
"2023-09-20 06:31:00",16.9,15.1,0.0,0.0,0,999.2,3,6,"",89
"2023-09-20 06:32:00",16.9,15.1,0.0,0.0,0,999.2,3,5,"",89
"2023-09-20 06:33:00",16.9,15.1,0.0,0.0,0,999.3,5,8,"",89
"2023-09-20 06:34:00",16.9,15.1,0.0,0.0,0,999.3,5,8,"",89
"2023-09-20 06:35:00",16.8,15.0,0.0,0.0,0,999.3,4,7,"",89
"2023-09-20 06:36:00",16.9,15.1,0.0,0.0,0,999.3,5,10,"",89
"2023-09-20 06:37:00",16.9,15.1,0.0,0.0,0,999.3,2,3,"",89
"2023-09-20 06:38:00",16.9,15.1,0.0,0.0,0,999.4,3,6,"",89
"2023-09-20 06:39:00",16.9,15.1,0.0,0.0,0,999.3,3,6,"",89
"2023-09-20 06:40:00",16.9,15.1,0.0,0.0,0,999.3,3,6,"",89
"2023-09-20 06:41:00",16.9,15.1,0.0,0.0,0,999.4,4,8,"",89
"2023-09-20 06:42:00",16.9,15.1,0.0,0.0,0,999.3,5,11,"",89
"2023-09-20 06:43:00",16.9,15.1,0.0,0.0,0,999.3,3,7,"",89
"2023-09-20 06:44:00",16.9,15.1,0.0,0.0,0,999.2,3,5,"",89